RH
6 6 6 5 5 5 6 6 6 7 8 9 10 12 14 16 17 18 19 18 17 15 14 15 15 16 16 17 16 15 14 12 10 13 17 17 14 11 9 9 6 7 7 9 33 46 41 40 35 32 30 27 27 22 20 21 18 22 22 32 46 28 12 16 15 16 16 17 18 18 18 16 19 21 24 24 23 25 26 27 30 32 33 35 41 52 60 63
7 7 6 6 6 6 6 6 5 6 6 6 6 7 9 11 14 15 17 18 18 16 15 14 15 16 16 16 16 15 14 11 9 11 15 17 15 11 9 8 7 7 6 18 39 40 32 30 28 27 25 22 22 19 17 18 17 19 18 28 43 26 10 15 13 14 16 17 18 18 18 17 17 19 22 21 22 24 24 27 29 31 36 41 46 55 60 63
6 6 7 6 6 6 6 6 6 6 6 6 5 5 6 7 8 10 13 16 18 18 16 15 14 15 15 15 15 15 13 11 12 12 15 16 13 11 10 9 9 7 6 22 35 30 25 23 22 23 21 18 17 16 14 16 17 16 19 27 32 20 11 14 13 14 15 16 18 18 18 18 17 18 19 20 20 21 23 25 27 31 39 43 48 55 58 62
7 6 6 6 6 6 6 6 6 6 6 6 6 6 5 5 5 6 8 10 13 16 17 17 15 14 15 15 15 14 14 14 15 15 14 13 11 10 11 9 10 7 8 23 28 23 19 18 21 20 17 16 13 14 13 14 15 13 17 24 27 20 12 13 13 14 15 16 17 18 19 18 17 18 18 18 18 19 21 23 25 31 38 44 49 52 55 59
7 7 7 7 7 7 7 6 6 6 6 6 6 6 6 6 6 5 5 6 8 10 13 16 16 16 14 15 15 14 17 16 13 16 12 10 10 9 11 9 10 8 9 23 24 19 17 14 19 19 15 14 12 12 11 11 13 12 12 16 23 19 12 13 13 13 14 16 17 17 19 18 19 18 17 18 18 16 18 21 24 29 37 44 48 50 52 54
8 8 8 8 8 8 8 8 7 7 7 7 7 6 6 6 6 6 6 5 5 6 8 12 15 16 15 16 15 14 20 15 11 18 13 9 9 8 11 10 11 7 11 24 22 17 16 12 16 18 15 12 11 11 9 10 10 11 11 11 15 14 12 14 13 13 13 14 16 17 18 19 19 18 17 18 17 16 16 20 23 28 36 42 46 48 49 50
7 7 8 8 8 8 8 8 8 8 8 8 8 8 8 7 7 6 6 6 5 5 5 7 9 13 15 15 15 17 21 14 10 16 13 9 9 9 11 11 11 8 14 25 20 15 14 12 14 17 14 11 11 10 8 9 8 10 11 9 11 12 13 13 12 13 12 13 15 17 18 18 19 18 18 18 18 17 17 19 22 27 34 40 43 45 45 48
7 7 7 7 7 7 7 7 8 8 8 9 9 9 8 8 8 7 7 6 6 6 5 6 5 8 11 11 16 20 19 13 12 16 11 9 10 11 13 13 11 10 18 23 18 15 13 11 13 15 13 10 10 9 7 7 7 9 9 9 10 11 12 12 12 12 12 12 14 17 17 17 19 19 18 18 18 19 18 20 23 27 32 37 40 41 42 47
7 7 7 7 7 7 6 6 7 7 8 9 9 9 9 9 9 8 8 7 7 6 5 6 4 5 6 8 15 17 12 10 14 16 13 14 14 10 14 19 15 16 24 21 15 15 11 10 10 12 11 9 9 8 7 7 7 8 8 9 9 10 11 11 11 10 10 12 13 16 16 17 19 18 18 18 18 19 19 22 24 27 29 32 36 37 41 46
7 7 7 7 7 7 7 7 6 7 7 7 8 9 9 9 8 8 8 8 7 7 6 6 5 5 4 9 15 14 11 10 12 14 15 20 20 14 18 25 22 22 25 18 13 11 9 9 7 9 9 7 8 7 7 7 7 7 8 9 9 10 11 9 10 9 10 11 12 15 16 18 18 18 19 18 19 20 20 23 25 27 27 29 33 35 40 45
7 7 7 7 7 7 7 7 6 7 7 7 7 7 8 9 9 9 8 8 8 7 7 5 5 4 5 15 20 13 11 11 12 15 18 19 19 18 20 24 24 23 20 15 12 9 8 8 6 7 7 7 7 6 6 6 7 7 8 9 9 10 10 10 10 9 9 10 12 14 16 17 18 19 18 18 21 21 21 23 26 27 28 30 31 34 42 45
7 7 7 7 7 7 7 7 7 7 7 7 7 7 7 8 8 9 8 9 8 8 7 6 6 4 10 24 23 14 13 12 11 15 18 18 16 16 16 17 20 21 18 15 12 10 8 7 7 6 6 7 7 6 6 6 7 7 7 9 9 9 10 10 9 10 10 11 13 14 17 18 18 19 16 18 22 23 22 22 26 28 29 32 30 34 43 45
6 6 6 6 6 6 6 6 7 7 7 7 6 7 7 7 8 8 8 8 8 8 6 6 6 8 21 28 19 14 15 14 12 13 16 17 15 15 16 16 16 18 19 16 12 11 9 8 7 6 6 6 6 7 7 6 7 7 8 8 9 10 10 10 10 10 10 12 13 14 21 21 18 19 17 19 22 23 23 22 24 26 29 33 32 36 43 45
6 5 5 5 6 5 6 6 6 7 7 7 7 6 6 7 7 7 8 8 8 8 7 8 11 19 33 27 13 15 16 15 15 15 14 15 15 15 16 16 15 16 17 17 14 11 9 9 7 6 6 6 6 6 6 7 7 7 8 8 10 12 11 10 10 10 10 14 14 14 22 22 17 18 17 20 23 22 24 23 23 24 27 32 33 37 43 46
5 5 5 5 5 5 5 5 5 6 7 7 6 7 7 7 7 7 8 7 8 8 6 10 16 26 36 25 14 17 17 18 17 15 14 14 16 16 16 16 15 15 16 16 15 11 9 8 7 6 6 6 6 6 6 7 7 7 10 10 10 11 11 10 10 10 11 15 14 14 20 17 14 16 17 21 23 21 23 24 24 23 25 29 32 36 40 45
5 5 5 4 4 4 5 4 5 6 6 7 7 7 6 6 6 6 7 7 9 9 9 24 37 35 28 18 17 18 17 20 16 15 16 15 16 15 15 16 14 15 16 15 13 11 9 8 7 6 6 6 6 6 7 8 8 8 10 11 10 11 11 11 11 10 11 15 14 14 17 14 13 15 17 22 23 21 22 24 24 24 25 28 31 33 37 42
6 5 4 4 5 4 4 4 5 5 5 6 6 6 7 7 7 6 8 7 8 9 10 30 49 41 26 16 16 15 14 18 16 16 17 14 15 14 14 14 13 14 14 13 12 10 9 8 8 7 5 5 5 6 9 11 11 10 10 11 11 11 11 12 13 11 11 14 15 15 16 14 13 14 18 22 22 21 22 24 25 25 26 27 30 31 34 40
6 6 5 5 4 4 4 4 4 4 5 6 5 7 6 5 7 9 12 11 14 23 24 33 41 31 21 19 16 12 12 16 16 17 17 13 14 14 14 13 12 12 11 11 10 9 9 8 7 6 5 5 5 7 10 11 10 10 11 11 11 11 10 11 13 12 11 14 16 17 17 16 14 15 20 22 22 22 21 23 25 25 27 28 30 30 32 38
7 6 5 5 5 4 4 3 4 4 4 5 5 6 6 12 19 22 31 37 34 33 30 35 35 19 12 16 16 13 12 15 15 14 13 12 13 14 13 12 11 10 9 9 8 8 8 7 7 6 5 6 6 7 8 9 8 9 10 10 11 11 10 10 10 11 11 14 16 16 17 17 15 17 20 21 22 22 21 23 25 26 27 29 32 32 32 36
8 7 6 6 5 4 4 4 4 3 4 6 5 8 14 23 28 27 38 47 41 30 20 22 24 15 11 12 12 12 13 14 13 12 11 11 13 14 13 12 10 9 8 7 7 7 7 7 7 6 5 5 6 6 6 7 7 7 9 9 10 10 10 9 9 11 11 13 15 15 15 16 15 17 19 21 22 21 21 22 24 26 27 29 32 33 33 35
9 9 8 6 6 5 4 4 3 4 6 5 6 14 18 16 16 16 20 23 21 21 17 14 14 13 12 9 8 9 10 11 11 11 9 10 13 13 12 12 9 8 7 6 6 6 7 7 6 5 5 5 5 6 6 7 7 7 8 9 10 10 9 8 7 10 11 13 15 15 15 16 16 15 16 20 21 21 21 21 23 25 27 28 31 34 34 36
10 10 8 7 7 4 4 4 3 6 8 7 11 18 20 15 13 15 15 11 9 10 10 10 9 9 9 8 7 7 7 9 9 10 9 10 12 12 11 11 9 8 6 6 6 6 7 7 5 4 4 5 5 6 6 6 7 7 8 9 10 10 9 8 7 9 10 13 15 15 16 16 16 15 15 18 21 22 21 20 22 24 26 27 30 33 34 36
11 10 9 9 7 6 6 3 5 10 8 9 17 21 21 19 15 15 16 13 11 9 7 8 7 7 8 7 7 6 6 7 7 9 9 10 12 11 10 10 9 8 6 5 6 7 8 6 5 4 4 4 5 5 6 6 7 7 8 9 10 9 9 9 8 9 11 13 14 16 16 16 16 16 15 16 19 22 23 21 21 22 26 27 28 32 33 35
12 10 11 9 7 8 5 3 9 14 11 12 22 26 21 18 15 14 17 15 11 10 8 8 7 6 6 6 7 6 6 7 7 8 8 10 11 10 10 9 9 9 7 5 5 6 6 5 4 4 4 4 5 5 5 6 7 7 7 8 9 8 8 8 9 12 13 13 14 16 19 18 17 17 16 15 17 20 22 23 22 21 24 27 27 29 33 34
12 11 11 9 10 8 5 14 23 15 10 17 26 27 21 20 17 14 20 19 12 11 9 8 7 7 7 8 9 7 7 7 7 7 8 9 10 10 10 9 9 9 7 6 5 5 5 4 4 4 4 4 4 5 5 6 7 7 7 7 7 8 7 7 9 12 15 17 15 16 25 25 18 18 18 16 16 17 20 23 23 23 22 26 28 28 31 34
13 11 12 10 10 7 7 23 26 10 10 23 29 27 24 24 16 14 24 21 11 9 9 9 7 7 9 10 10 9 9 9 8 8 8 9 10 9 9 9 9 8 7 7 6 5 4 4 4 3 3 4 4 5 5 5 6 7 7 6 7 7 7 8 8 10 16 18 14 15 25 27 20 19 18 16 17 16 18 21 22 24 23 24 27 28 30 32
15 11 11 11 10 10 8 13 12 5 15 27 26 23 23 17 10 16 26 20 10 9 10 10 9 9 10 10 11 10 10 10 9 9 8 9 10 9 9 9 9 9 7 7 8 7 6 4 4 3 3 3 4 4 4 4 6 7 6 6 7 7 7 8 8 10 13 14 15 15 19 25 23 19 16 15 16 16 18 21 21 22 23 25 26 28 29 31
19 14 11 10 10 10 9 7 5 8 20 26 18 15 14 9 10 21 27 21 12 9 10 12 12 12 12 12 12 10 10 10 9 9 8 9 10 8 9 9 8 9 6 7 10 8 6 5 4 3 4 4 3 4 4 4 5 6 5 5 6 7 8 8 7 10 11 13 18 16 16 25 26 19 15 13 15 17 17 18 20 21 21 24 27 29 29 30
23 17 11 11 9 10 13 9 5 8 16 17 10 6 7 10 17 22 23 21 13 6 10 13 13 12 12 13 12 10 10 10 9 9 8 9 10 8 9 8 8 8 7 7 9 7 6 6 4 3 5 4 3 4 4 4 5 5 5 5 6 7 7 8 8 9 11 15 20 16 14 22 25 19 15 15 15 16 16 15 17 19 21 25 29 30 30 30
26 22 15 11 9 13 16 12 12 15 12 8 6 4 9 19 26 22 19 18 11 6 10 12 12 11 11 12 12 10 11 10 9 10 9 9 9 8 8 8 7 8 8 7 7 7 6 5 5 4 4 4 4 4 3 4 4 4 5 6 6 7 7 8 9 9 12 16 16 13 12 17 23 20 14 15 15 14 15 15 15 16 20 25 27 28 30 30
27 24 18 13 9 11 12 15 29 32 17 6 5 7 15 22 23 20 19 14 8 7 10 11 11 9 10 11 10 10 10 9 9 10 9 9 8 8 8 9 8 8 10 9 8 8 7 6 6 5 4 4 3 3 3 3 3 4 5 6 8 8 10 11 11 11 15 16 13 10 10 13 20 19 13 13 13 12 14 15 15 14 16 22 25 26 28 29
27 25 20 15 11 9 10 14 24 26 13 4 7 15 18 18 18 18 15 10 8 9 8 8 9 8 10 10 8 9 9 8 9 9 9 9 9 8 8 10 10 11 12 11 9 9 8 6 6 6 5 4 4 3 3 3 3 4 5 7 9 11 14 16 15 14 15 15 11 9 10 12 15 16 13 12 11 12 13 13 12 11 12 17 21 24 28 28
24 22 21 18 13 11 11 9 10 11 6 5 14 19 15 16 19 16 10 9 8 8 7 7 7 8 9 9 8 8 8 8 8 9 9 8 9 8 8 9 9 9 11 10 10 11 10 7 5 6 6 4 4 3 3 4 4 4 5 8 10 12 17 20 17 15 15 13 10 8 11 13 14 13 12 12 10 10 11 11 11 10 10 11 13 21 28 27
20 19 20 19 14 12 10 9 14 14 10 15 22 17 13 18 18 11 9 9 7 6 7 7 6 8 9 8 8 7 8 8 7 8 10 9 9 9 8 8 7 7 8 9 10 11 12 10 6 7 7 5 5 3 3 3 3 4 4 6 9 11 15 18 16 16 16 14 11 10 13 14 15 14 11 10 9 9 10 10 10 9 10 8 9 18 27 24
19 18 18 20 24 28 26 25 26 25 25 29 24 13 14 17 13 10 10 7 6 6 7 6 7 9 9 8 7 6 7 7 6 8 10 9 9 9 8 9 7 7 7 9 10 10 11 10 6 6 6 5 5 3 2 3 4 4 4 6 9 9 11 13 13 14 14 13 12 12 13 12 12 11 9 9 10 9 9 10 10 9 9 8 8 16 25 25
18 17 21 29 34 39 48 46 34 36 43 35 19 12 13 12 9 9 8 6 7 6 6 7 8 9 9 8 7 6 6 7 6 7 8 9 9 8 8 8 7 7 7 8 9 9 11 10 6 6 6 5 5 4 3 3 4 5 6 7 7 6 8 11 12 13 12 14 14 11 10 10 9 9 9 10 10 9 10 9 9 9 7 8 9 12 18 24
15 19 26 31 31 39 58 56 39 47 54 36 21 17 10 7 8 7 6 6 6 6 6 8 8 8 9 9 8 7 7 7 7 7 8 9 8 8 7 7 6 6 6 7 8 8 10 10 7 6 7 6 5 4 3 2 3 4 5 6 5 5 7 10 13 14 14 16 14 11 10 10 11 11 10 11 10 10 11 10 8 9 7 7 10 13 17 22
23 34 33 30 38 52 62 54 44 54 54 34 26 24 12 7 7 5 5 6 6 7 8 7 7 8 7 8 8 7 7 8 7 8 9 9 8 8 7 7 7 6 5 6 7 7 8 10 9 6 7 7 6 5 5 3 2 3 4 3 5 7 9 11 12 13 15 17 15 13 11 10 11 11 11 12 11 10 12 11 9 8 7 7 9 14 18 22
44 45 34 35 51 55 48 41 44 52 47 35 30 23 15 11 7 6 5 5 5 8 11 9 7 7 6 6 6 5 7 8 8 8 8 9 8 7 7 7 7 6 6 6 7 7 7 10 11 7 6 6 6 7 7 5 4 2 3 3 4 7 9 10 10 11 14 16 15 15 13 11 10 9 10 12 11 10 12 12 10 8 7 7 7 10 15 20
60 40 29 43 57 50 38 33 38 41 39 37 31 20 15 12 8 8 6 5 5 6 10 11 8 7 7 6 5 5 5 7 8 8 8 7 7 7 7 7 7 7 6 6 7 7 7 11 13 8 6 7 8 8 7 6 5 3 3 4 4 6 7 7 9 10 11 13 15 16 15 13 10 7 9 11 10 10 11 10 10 8 7 7 6 8 11 17
62 40 30 43 52 48 42 33 29 29 29 31 28 21 18 13 10 9 7 6 5 4 7 8 7 8 7 6 7 5 5 6 5 7 7 6 6 8 8 7 7 7 7 8 7 7 8 11 13 10 7 8 8 6 5 5 5 4 3 3 4 6 6 9 11 9 8 11 14 15 16 13 9 7 8 8 9 10 9 9 9 7 7 6 6 8 9 16
59 41 30 34 39 38 37 28 22 22 23 24 22 20 19 15 13 10 7 7 6 4 5 5 5 7 7 7 7 6 7 7 6 7 7 6 6 7 8 7 7 6 7 9 8 7 8 9 12 11 8 7 7 5 5 5 4 3 3 3 3 4 5 9 12 9 8 10 10 12 15 12 8 8 8 7 9 9 8 8 8 7 7 7 6 7 8 17
51 42 34 32 29 26 26 26 24 21 20 20 17 16 16 15 14 12 9 8 6 5 5 5 5 6 6 6 6 6 8 8 8 8 8 7 6 6 7 7 7 7 7 9 9 8 9 10 13 14 10 7 6 5 4 4 4 4 3 3 3 3 4 7 9 9 10 10 9 12 14 10 8 8 8 8 9 8 7 8 8 8 7 7 6 7 8 15
53 50 43 33 30 29 26 25 25 22 19 18 16 15 14 12 12 13 11 10 8 7 6 6 5 5 5 6 6 7 8 8 9 8 7 8 6 6 7 6 8 8 6 9 10 8 11 13 14 17 17 13 10 8 7 5 5 5 4 4 3 3 3 4 6 9 11 11 10 13 13 10 9 10 9 8 9 9 8 7 8 8 8 7 7 7 7 14
60 49 40 32 33 38 33 26 25 23 21 21 19 17 16 15 13 12 11 11 10 9 7 6 6 5 4 5 5 7 7 8 10 8 7 8 6 6 6 6 9 7 6 14 16 9 10 14 15 17 20 18 16 14 11 8 6 5 4 4 4 4 3 3 6 9 12 13 13 13 12 10 9 10 9 8 8 10 10 9 8 7 8 7 7 10 11 22
62 45 34 28 28 31 33 31 29 27 24 25 26 23 22 23 20 15 13 13 12 11 10 8 6 5 6 5 6 7 6 7 8 8 8 7 6 6 5 6 7 5 9 19 17 9 10 13 14 17 18 16 16 14 10 8 7 6 5 4 3 3 3 4 7 8 10 12 12 13 12 11 10 10 9 8 8 10 11 9 8 8 8 6 11 22 27 33
71 51 35 32 31 30 32 34 34 37 36 32 31 28 26 27 26 23 19 16 14 13 11 10 8 7 6 6 6 7 6 6 7 8 8 7 7 6 5 5 6 7 13 17 11 9 14 15 13 15 16 14 13 11 8 8 8 6 6 6 4 3 4 5 6 7 8 9 10 12 13 13 12 9 9 9 8 9 11 10 8 8 7 5 11 28 38 38
70 52 38 39 40 34 33 33 35 41 42 34 31 29 29 29 28 27 24 19 16 14 13 14 12 10 9 7 7 8 8 8 8 8 8 8 7 6 6 6 5 6 11 11 8 10 17 17 12 12 14 13 12 10 8 8 8 6 6 7 6 5 4 5 6 6 8 9 9 11 12 13 11 8 7 8 8 9 9 9 8 7 8 7 7 19 32 36
69 56 46 44 41 35 34 32 32 38 38 32 28 28 29 30 28 26 24 22 21 17 14 15 13 10 10 8 9 11 10 10 10 10 9 9 8 7 8 7 5 6 7 8 9 11 16 20 16 13 13 13 11 11 10 9 8 8 8 8 7 6 5 5 5 4 6 8 7 8 11 11 9 7 7 7 8 8 7 8 8 6 8 8 5 10 19 23
78 67 56 51 45 38 37 33 30 32 32 28 29 29 29 29 27 25 25 30 35 30 23 22 21 18 17 14 11 11 11 10 10 10 10 9 9 9 9 9 7 6 7 9 11 11 15 20 19 16 17 16 13 12 11 10 9 8 9 8 7 7 7 6 6 5 6 7 6 7 10 10 7 7 8 7 8 9 8 8 9 7 8 8 6 8 9 9
83 76 66 60 52 44 41 37 31 32 30 27 29 28 26 24 25 29 33 33 34 34 34 36 36 33 31 26 18 11 9 11 12 11 10 10 9 9 8 8 8 9 9 10 11 12 14 18 18 20 25 22 16 15 13 11 10 9 9 9 8 8 7 7 7 6 6 7 8 8 9 8 7 7 8 8 9 9 9 9 8 8 9 8 7 7 6 7
84 79 68 62 57 50 44 38 35 36 33 28 25 22 21 23 24 30 38 36 29 29 36 41 40 37 37 35 29 22 20 22 21 20 19 16 13 11 9 7 7 8 9 9 10 11 14 18 19 23 28 25 18 16 14 14 17 17 12 10 9 8 7 6 6 6 6 7 8 9 8 8 8 7 8 9 9 9 10 9 8 8 9 8 8 8 6 7
Wind_Speed
16 16 16 16 16 16 17 17 17 17 18 18 18 18 18 17 17 16 16 15 15 16 16 15 15 17 17 17 18 19 21 21 19 18 17 15 13 14 15 14 12 11 9 8 13 15 16 16 16 14 12 12 12 13 11 10 10 9 7 1 2 4 3 4 3 6 6 8 8 9 8 9 9 7 9 8 9 12 10 11 11 8 7 12 20 26 28 27
16 16 16 16 16 16 16 16 17 17 17 18 18 18 18 19 18 18 17 17 16 16 16 16 16 17 17 18 18 20 23 22 22 20 17 16 14 13 12 11 11 13 13 13 17 18 17 16 16 14 13 13 12 12 10 9 9 9 5 1 4 5 5 3 4 7 5 7 9 8 6 8 10 9 9 8 10 11 10 13 12 11 12 16 24 27 28 27
15 15 16 16 16 16 15 15 16 17 17 17 17 18 18 19 19 19 19 18 18 17 17 17 16 17 18 18 18 21 23 24 23 16 13 12 7 6 7 8 9 12 15 16 18 18 16 15 14 14 14 13 12 11 8 7 8 9 6 1 7 10 3 4 4 5 5 7 9 9 6 7 10 10 8 8 11 10 10 12 13 14 17 20 25 27 28 27
15 15 15 16 16 16 16 16 16 17 17 17 17 17 18 19 19 19 19 19 19 18 18 17 17 17 18 19 19 20 22 23 14 6 9 10 4 1 3 4 6 10 16 17 15 17 15 14 14 15 14 12 13 12 9 8 6 7 6 5 6 14 1 5 2 4 5 5 8 9 6 8 10 9 8 8 9 8 9 12 14 16 19 23 26 27 27 27
15 15 15 16 16 16 16 16 17 17 17 17 17 17 18 18 18 19 19 19 19 18 18 18 17 17 18 18 18 19 19 13 2 9 6 7 1 7 4 3 4 8 16 18 16 17 16 16 16 15 15 12 12 12 10 12 8 6 6 6 12 13 1 4 2 3 4 4 7 8 6 8 10 9 7 7 5 5 11 13 14 17 20 24 25 27 27 26
16 16 16 17 17 16 16 17 17 18 18 18 18 18 18 19 19 19 19 19 18 18 18 17 17 17 18 18 18 17 13 7 3 5 4 6 12 12 5 3 4 7 16 20 17 18 18 18 17 16 15 12 13 12 10 13 11 8 7 6 9 8 2 1 1 3 4 4 7 7 6 9 9 9 8 7 2 3 12 14 14 18 20 24 25 26 26 26
16 16 16 17 17 17 17 17 17 18 18 19 19 19 19 19 19 19 19 18 18 18 17 17 16 16 17 17 18 16 14 16 11 10 12 16 16 10 4 3 4 8 17 21 19 19 19 20 20 18 15 11 13 13 13 13 12 9 7 7 7 6 6 4 4 4 5 4 5 8 7 9 8 8 10 10 5 4 10 14 15 18 20 23 25 25 25 25
16 16 17 17 18 18 17 17 17 18 18 19 20 20 20 20 21 20 19 19 18 18 17 16 16 15 16 15 14 14 16 17 10 9 13 14 8 4 4 3 3 9 18 22 20 20 20 21 22 19 14 12 13 14 14 13 10 11 10 8 7 7 8 7 7 6 6 6 5 9 8 9 7 7 9 10 9 7 8 14 17 19 21 22 24 25 25 25
16 16 17 17 18 18 18 18 18 18 18 19 20 20 21 21 21 21 20 19 19 18 17 16 15 14 14 14 13 13 13 8 2 4 7 7 5 4 3 4 5 10 17 20 20 20 20 21 22 20 15 14 15 15 14 12 9 10 11 11 9 8 9 9 9 8 7 7 7 10 9 9 9 7 8 11 12 10 10 14 17 19 21 22 23 24 24 25
16 16 16 17 18 18 18 19 19 19 19 18 19 20 21 22 22 21 20 20 19 18 17 15 14 13 13 12 12 11 8 5 4 5 6 6 6 5 3 6 8 12 17 18 19 21 21 20 20 20 18 17 16 15 14 13 10 7 7 9 10 8 9 9 8 9 8 8 10 11 9 10 11 6 7 12 13 12 13 15 17 19 21 22 22 23 23 24
17 16 17 17 17 18 18 18 19 19 19 19 19 19 20 21 21 21 20 20 20 19 17 15 13 13 11 10 13 11 6 7 6 6 8 8 8 7 7 9 10 14 16 17 19 21 22 21 19 18 16 15 16 16 16 15 13 10 8 8 9 10 10 10 10 9 8 9 12 12 10 11 13 7 6 15 15 13 15 16 17 19 20 21 21 22 22 22
19 18 18 18 18 18 18 18 19 19 19 19 19 19 20 21 21 20 20 19 20 19 17 15 12 12 10 11 19 18 11 10 9 8 10 10 11 10 10 11 12 15 16 17 19 19 21 21 20 19 16 14 14 13 12 16 18 13 11 10 10 12 11 12 10 8 9 10 13 13 11 11 12 8 7 17 17 15 17 17 18 18 19 21 21 22 22 22
20 19 19 19 19 19 19 19 19 19 19 19 19 19 20 20 20 20 20 19 19 18 17 15 12 10 8 13 20 17 13 13 13 12 13 12 13 13 13 14 14 16 17 18 18 18 20 20 21 23 21 16 14 11 8 11 18 13 11 11 9 10 9 10 7 8 10 11 15 13 8 8 11 11 10 17 17 17 18 17 18 18 19 20 20 22 22 22
20 20 20 20 20 20 20 19 20 20 20 19 19 19 19 19 19 19 19 19 19 18 17 13 10 7 8 16 18 14 14 14 14 15 14 13 14 14 14 14 15 16 17 18 17 16 18 19 21 22 23 20 17 15 10 9 13 11 11 10 7 8 6 8 7 10 10 10 16 13 6 7 11 14 14 17 18 17 17 18 19 19 19 20 21 21 22 22
19 19 20 20 20 20 20 20 21 21 20 20 19 19 19 19 18 18 18 19 18 18 15 11 9 6 11 20 17 13 14 14 16 16 14 13 13 14 15 15 15 15 15 17 17 16 16 19 22 20 20 21 19 16 10 9 10 9 10 9 8 8 5 10 10 12 11 9 15 13 5 6 11 15 17 18 18 17 17 18 19 19 20 20 21 22 21 22
19 19 19 19 20 20 20 21 21 21 21 20 19 19 18 18 17 17 18 18 18 16 12 8 7 6 10 12 7 10 10 9 13 14 12 11 12 12 14 14 14 14 14 15 15 15 16 17 20 20 18 18 16 12 8 9 10 9 10 9 9 9 7 9 10 13 13 11 14 14 7 4 8 13 17 18 19 18 16 17 19 19 20 20 21 22 21 22
21 20 19 19 20 20 20 20 21 21 21 20 20 19 17 18 17 16 17 16 16 14 9 5 3 7 13 9 6 9 9 8 8 12 11 8 10 11 12 14 13 14 15 15 14 13 16 17 16 16 17 14 12 11 10 10 10 9 10 9 9 11 10 8 9 13 14 12 13 14 10 5 7 13 16 18 19 19 16 16 18 19 19 21 21 22 22 22
22 22 21 20 20 20 20 20 20 20 20 19 19 19 18 17 16 15 16 15 12 9 9 9 6 7 12 12 12 11 9 11 10 11 10 7 9 10 12 14 13 14 16 15 15 16 17 17 15 12 13 13 12 13 12 12 12 11 11 9 9 13 12 10 11 12 15 12 12 14 11 9 7 13 16 17 18 18 16 16 17 18 19 20 21 22 22 23
23 23 23 22 21 20 20 20 19 19 19 17 16 17 17 15 14 13 11 9 8 6 6 8 13 8 7 4 10 8 7 11 11 10 10 8 9 12 14 14 13 17 17 13 15 19 17 13 14 12 12 15 16 16 16 16 16 14 13 11 10 12 11 11 10 13 15 13 12 14 12 12 10 12 13 15 16 17 16 16 16 18 19 20 21 22 22 24
24 24 24 24 22 21 20 20 18 18 17 16 14 13 13 11 9 6 3 10 17 16 16 11 16 18 17 8 8 9 9 11 12 12 13 11 10 14 17 15 16 17 14 12 13 18 17 11 12 14 15 18 20 20 20 20 19 16 14 12 13 13 11 13 12 15 16 13 12 14 13 14 13 12 13 14 16 16 16 16 17 17 19 20 21 22 22 23
24 24 24 24 23 21 20 19 18 16 14 14 12 10 10 9 6 6 8 14 22 23 26 25 21 24 25 18 13 12 12 12 15 16 14 14 14 15 17 17 15 13 13 15 13 16 17 12 14 18 18 20 20 21 22 21 22 18 15 12 12 13 11 13 12 15 16 12 11 13 14 14 14 13 14 15 15 15 17 17 17 18 19 20 21 22 22 22
24 24 24 24 23 21 19 19 17 13 10 11 11 8 7 7 5 8 12 16 23 25 26 28 27 27 26 24 20 16 15 14 15 16 14 16 18 16 17 18 14 11 14 16 12 13 14 13 17 20 19 20 20 21 23 22 22 17 13 11 10 11 11 11 11 15 14 9 9 13 14 13 14 14 14 15 15 15 17 17 17 19 18 19 21 22 22 22
24 24 25 25 24 21 18 18 15 9 9 11 10 8 5 5 6 9 11 14 21 25 25 26 27 28 26 24 21 19 20 18 16 18 18 19 20 20 17 16 15 14 15 16 14 12 11 13 19 20 18 21 22 21 23 21 18 16 13 11 10 12 12 10 8 12 12 8 8 12 12 10 12 14 14 16 17 17 18 19 18 19 20 21 21 21 23 24
23 24 24 25 25 21 18 16 10 8 13 12 9 8 6 5 8 12 13 13 16 19 22 25 24 25 24 20 17 21 23 21 18 19 21 22 23 21 17 16 16 15 14 18 19 16 13 14 18 20 19 22 22 20 21 17 13 16 18 14 12 14 14 10 8 11 10 10 11 12 9 9 11 14 14 15 17 18 18 19 19 20 21 22 21 22 23 25
22 23 24 24 24 22 17 10 5 9 12 9 6 6 6 7 11 13 11 10 11 11 14 18 19 19 18 13 13 19 19 19 21 20 22 27 25 19 16 17 15 14 17 20 20 16 15 15 18 21 20 22 22 19 20 17 13 16 19 18 17 15 15 14 12 12 9 10 14 14 10 8 11 15 14 12 15 17 17 18 19 20 22 23 23 23 24 25
21 21 23 23 23 23 15 5 5 11 9 4 3 4 6 9 12 11 6 7 8 5 7 12 15 13 15 15 15 17 13 16 22 21 21 27 27 21 15 14 12 14 17 17 14 10 11 16 18 20 22 22 20 18 20 19 14 13 16 20 21 19 16 18 16 12 8 8 12 14 11 8 9 13 14 14 15 16 17 17 18 21 22 24 25 26 26 27
21 20 22 22 21 22 16 9 11 11 7 5 5 6 9 9 8 8 3 7 7 5 9 9 10 10 13 15 19 16 6 7 17 20 22 25 27 24 16 13 12 13 14 11 10 9 12 19 19 18 20 19 18 17 19 20 15 12 15 19 22 21 20 20 16 10 9 8 10 13 13 9 8 10 15 17 17 16 17 17 17 21 24 25 27 27 28 29
22 19 21 22 18 18 19 16 14 11 8 9 9 9 9 7 6 5 4 6 2 6 8 6 7 9 10 13 22 17 3 7 12 17 24 24 26 24 17 16 14 13 16 13 10 11 14 21 20 18 18 16 15 16 18 20 16 14 16 17 18 20 21 21 15 10 10 10 10 14 15 10 8 10 13 16 18 17 17 18 17 19 23 24 26 27 28 30
23 20 19 22 19 15 16 17 15 11 9 9 9 7 6 7 6 4 6 6 2 3 6 8 8 10 12 13 20 20 8 7 7 13 23 23 24 23 15 16 17 14 18 16 13 12 13 19 20 18 16 14 14 16 19 20 15 15 18 18 17 18 18 19 15 11 11 12 11 15 17 11 8 10 12 12 14 15 15 15 15 18 20 20 22 24 25 28
24 21 18 21 21 16 15 16 14 10 8 8 7 5 5 7 5 6 8 5 4 4 8 9 9 13 16 13 15 17 14 12 7 13 20 20 23 24 17 17 18 13 14 17 17 15 12 17 19 16 14 14 16 18 20 21 18 16 17 17 18 16 14 13 13 12 12 12 14 18 20 14 9 10 11 11 12 14 13 12 12 15 19 20 21 21 22 25
24 22 18 19 20 18 16 13 9 8 9 9 7 5 6 6 6 9 9 2 4 5 11 9 10 14 18 15 12 15 15 13 12 14 15 15 19 20 16 14 14 11 12 13 15 17 16 14 13 15 18 18 17 18 18 20 20 16 13 14 15 12 9 10 12 13 12 12 14 18 21 18 12 9 10 12 14 15 13 12 14 16 17 21 23 21 22 26
25 23 19 17 18 19 17 11 9 15 16 10 6 7 7 7 9 10 8 1 1 7 9 10 13 13 17 17 13 15 15 13 14 15 14 13 13 15 15 12 10 11 12 11 12 15 16 15 12 14 20 21 18 15 15 16 17 15 12 13 15 11 9 11 12 12 12 12 14 17 19 17 12 10 12 14 14 14 15 15 16 15 17 24 27 25 24 25
25 24 21 16 16 19 18 14 13 18 15 7 7 8 8 9 10 11 11 6 2 5 5 9 14 14 16 16 13 14 15 13 15 15 15 15 13 15 19 17 15 13 11 11 12 12 13 16 17 16 16 20 20 14 12 13 15 16 14 13 14 11 10 12 12 12 12 12 15 18 17 14 10 11 17 18 15 14 16 19 19 17 19 22 23 25 23 21
26 25 22 17 15 17 18 14 12 13 9 7 8 8 11 13 10 10 13 13 8 3 3 7 12 15 16 14 12 13 13 12 15 16 15 16 13 13 16 20 22 17 11 11 11 11 12 13 18 18 12 17 22 18 15 14 14 15 15 14 14 11 11 12 10 11 11 12 15 18 15 11 9 10 14 17 17 15 14 17 21 22 21 17 13 20 23 20
27 24 22 18 13 14 14 11 10 8 6 9 9 10 14 13 9 10 12 12 12 10 8 8 10 13 14 13 13 15 14 11 15 16 14 14 14 13 14 17 22 19 13 11 8 11 14 12 14 20 16 17 21 20 19 17 14 12 13 14 14 13 12 11 10 12 13 12 13 13 11 10 10 10 9 11 16 17 16 17 21 23 20 13 10 16 23 25
27 24 21 15 11 11 11 9 6 6 9 11 11 12 14 12 9 9 8 9 12 13 10 10 11 11 11 11 13 17 15 12 14 14 12 15 15 16 15 14 19 22 16 11 7 8 12 10 13 20 20 20 20 20 21 19 12 10 13 16 15 15 15 12 12 14 14 13 11 11 12 11 12 12 11 13 14 14 16 18 20 23 19 13 13 16 21 26
26 24 21 16 12 9 10 8 4 5 12 12 12 13 12 12 14 13 10 9 11 13 13 11 10 12 12 10 12 17 16 12 13 11 10 14 14 16 18 15 18 23 21 15 10 8 9 9 12 19 20 21 22 21 22 22 17 10 12 16 14 15 16 12 11 12 13 13 11 13 17 14 12 10 12 18 18 15 16 18 18 20 19 15 16 17 20 25
24 23 23 15 8 8 10 7 4 7 13 12 15 17 13 13 16 17 16 15 12 11 13 12 9 11 13 11 11 16 17 13 12 12 10 11 11 15 18 15 17 22 24 21 13 8 9 8 10 18 19 19 20 18 17 21 25 19 13 13 13 13 15 13 12 12 13 13 10 14 19 15 12 10 10 16 19 18 18 20 18 17 18 17 18 18 18 20
20 20 17 4 7 8 7 6 6 10 13 11 13 14 12 15 19 20 21 20 15 12 12 13 12 11 12 13 12 14 17 15 13 12 11 9 9 14 18 16 16 19 23 23 14 9 9 7 7 13 16 15 14 13 13 15 21 23 18 14 13 12 13 13 11 10 12 13 11 14 16 12 11 11 12 14 17 17 19 20 18 16 20 21 18 18 16 16
16 15 10 4 7 6 7 7 9 12 11 11 13 12 12 15 19 25 27 23 16 13 12 13 14 12 12 15 15 13 14 16 16 13 11 11 10 11 15 15 15 18 21 22 17 12 9 7 8 10 14 14 11 12 16 15 15 18 17 16 13 11 11 12 11 12 13 12 10 12 12 10 10 11 14 15 14 14 18 19 17 18 23 22 16 17 18 19
14 12 8 6 5 6 8 9 11 11 10 11 14 14 15 15 16 21 28 28 22 17 15 15 15 14 13 14 14 12 12 14 16 13 10 13 13 8 10 14 14 15 17 18 16 13 9 7 8 10 11 13 14 16 19 19 17 15 15 16 16 12 11 12 13 15 14 12 11 11 11 10 10 11 13 13 12 13 15 15 14 16 18 16 14 16 19 20
14 10 8 6 5 9 10 10 10 11 10 12 15 16 17 17 16 18 22 25 23 20 17 16 16 16 14 13 13 13 12 12 13 13 11 14 15 11 11 17 18 16 14 13 14 15 11 7 8 10 10 12 16 19 20 22 22 18 16 17 18 16 13 11 12 13 13 14 15 13 13 11 9 10 10 10 12 16 17 14 12 13 15 16 19 16 17 18
14 15 17 17 16 16 13 10 10 11 11 14 20 22 21 18 16 18 19 19 18 16 16 15 16 18 16 15 15 14 14 13 12 14 14 13 14 13 10 14 19 18 13 11 14 15 11 8 9 10 10 11 15 17 18 21 21 18 16 17 17 18 18 14 12 11 12 15 15 13 14 12 10 11 9 8 12 17 19 19 18 18 18 19 18 10 10 13
18 21 25 23 15 14 14 9 9 10 11 16 20 21 23 21 18 18 17 16 15 13 13 14 16 17 16 16 17 15 14 13 12 15 15 12 12 14 13 14 14 14 13 10 9 12 12 9 10 10 9 10 12 12 14 17 17 13 14 18 19 24 27 21 15 12 12 16 17 14 12 10 10 13 13 12 12 14 17 20 23 22 19 18 14 8 9 12
18 18 21 19 14 16 16 12 11 11 12 17 18 18 19 18 20 23 20 17 18 17 14 15 17 17 17 17 18 18 17 14 11 12 14 13 11 13 16 15 11 13 15 5 3 7 12 10 10 11 10 12 12 11 11 12 13 12 15 21 23 26 27 20 14 14 13 14 17 15 12 10 11 14 18 17 13 12 14 17 22 23 23 22 16 10 14 14
14 11 12 13 14 19 19 18 18 14 11 14 15 15 16 13 15 22 22 19 20 21 17 16 17 18 18 20 19 19 21 19 15 12 12 14 11 10 14 15 13 17 14 4 7 8 10 9 14 15 13 12 12 11 11 12 13 15 18 23 23 24 25 20 15 15 14 12 14 15 14 14 15 16 20 19 15 14 13 14 17 19 21 23 14 11 15 16
11 8 9 9 9 12 15 16 14 9 10 13 10 10 16 14 11 15 18 19 21 23 18 16 18 18 17 21 19 17 20 21 20 18 16 15 13 11 16 18 19 20 11 5 7 10 7 10 18 20 19 18 17 15 15 16 18 18 19 22 23 23 25 23 18 18 16 13 14 15 16 18 19 19 20 20 19 17 16 16 18 17 16 16 14 15 18 18
11 12 15 13 9 8 10 11 9 9 13 14 9 10 15 14 13 13 13 15 18 21 17 14 19 21 19 19 16 15 19 19 19 20 17 15 14 13 15 18 21 22 15 11 13 10 6 10 15 18 20 22 23 22 18 18 19 18 17 20 22 23 25 24 22 22 20 16 14 15 18 19 20 22 22 20 17 16 17 20 22 21 19 17 17 19 20 18
14 15 17 16 12 12 13 16 15 12 13 13 9 10 12 12 14 14 12 12 14 16 17 17 20 21 22 21 16 14 15 16 17 17 16 17 17 14 12 15 19 20 18 15 13 11 8 9 12 16 18 20 23 24 23 22 20 19 21 23 23 23 25 25 24 24 24 22 19 18 20 20 18 20 23 23 23 19 19 21 23 24 23 21 22 22 19 16
16 13 13 13 13 14 17 18 15 10 10 11 10 10 11 13 15 13 11 11 11 12 14 14 13 13 16 20 20 17 16 16 16 16 16 17 16 13 12 10 12 17 18 15 13 14 12 9 11 14 14 16 20 22 24 25 23 23 24 24 24 24 25 25 24 24 23 22 23 24 22 18 15 16 19 24 30 28 20 19 22 23 23 23 23 22 20 19
21 15 12 12 11 11 13 14 12 10 8 9 10 10 11 13 13 10 11 13 14 14 12 12 14 14 16 18 20 20 17 15 15 15 16 18 16 15 14 11 11 13 16 15 14 14 13 11 11 12 11 14 17 20 23 24 24 25 25 25 25 23 22 22 21 20 21 20 21 23 20 15 13 14 14 18 24 26 22 21 21 21 22 23 22 20 19 20
22 17 13 12 10 9 10 10 10 11 10 9 12 13 13 13 11 7 9 11 16 16 12 16 15 12 13 14 10 9 15 16 15 17 15 14 15 16 16 16 17 15 13 14 13 13 13 11 10 11 11 13 17 20 21 20 19 19 21 24 26 24 24 24 21 22 23 21 18 17 15 13 14 16 16 17 20 21 22 26 26 24 23 24 23 22 21 22
Wind_Direction
321 320 318 318 318 316 316 315 314 313 313 312 312 311 310 309 309 308 308 307 305 303 300 300 302 302 306 313 316 320 320 317 315 306 286 271 266 263 258 260 251 228 226 202 187 189 196 205 210 213 221 225 230 243 241 234 248 257 253 261 308 283 60 75 78 77 98 114 119 142 153 129 136 140 126 143 132 130 146 138 135 130 127 136 139 143 147 148
321 320 320 319 318 318 317 316 314 313 312 311 310 309 308 307 307 306 305 304 303 303 300 300 301 300 303 308 315 318 316 314 309 293 266 256 263 266 261 259 244 221 211 194 191 194 199 202 204 207 217 229 228 237 237 220 229 244 265 37 265 289 61 66 64 79 101 118 124 140 152 135 138 140 149 168 137 140 151 139 145 136 126 133 139 145 149 152
322 321 320 319 319 319 318 316 315 313 312 311 310 309 307 306 305 305 303 302 302 301 300 299 299 301 302 306 313 314 317 315 302 279 243 232 237 243 244 256 241 218 210 200 198 200 204 205 202 204 217 236 231 227 227 206 209 226 240 57 287 293 61 89 67 100 110 117 137 137 141 138 136 143 164 172 139 152 159 146 156 143 137 143 145 149 152 155
322 321 320 319 319 319 318 317 314 313 312 311 310 309 307 305 304 304 302 302 301 299 300 298 298 299 300 305 310 314 318 311 291 209 194 193 155 296 246 255 242 220 206 201 205 207 213 211 203 209 221 237 235 229 228 218 208 225 227 137 236 271 326 102 104 119 108 124 138 130 146 141 136 149 169 171 148 162 163 156 162 149 148 152 152 154 156 159
320 320 319 318 318 318 317 316 314 313 313 310 310 308 306 305 303 303 302 302 301 300 299 297 298 296 298 302 305 314 315 308 157 133 169 187 296 322 302 276 246 219 201 199 212 211 217 216 206 213 226 239 239 231 228 229 233 255 258 174 200 241 284 102 132 106 106 141 133 134 157 132 138 159 168 176 171 171 158 158 161 154 156 157 158 159 160 164
318 318 317 316 315 316 315 314 313 312 312 310 309 308 306 305 303 303 302 302 302 300 299 297 298 295 297 299 302 309 300 296 125 163 247 271 293 299 293 267 233 205 194 201 214 212 217 218 208 213 223 236 243 240 231 226 230 245 259 233 221 242 272 115 175 147 144 169 149 151 144 127 151 166 165 176 175 119 142 153 156 153 159 160 162 163 164 168
318 317 316 316 314 314 314 313 311 310 310 308 307 306 305 304 302 303 302 304 303 301 300 298 298 294 295 296 300 299 271 273 273 240 263 283 286 278 246 246 229 189 188 201 213 211 215 216 211 215 223 230 239 245 245 238 230 235 256 254 241 244 246 231 236 202 175 207 166 155 150 148 173 165 164 175 148 99 130 146 151 150 159 163 164 167 169 171
318 318 316 316 315 315 314 312 310 309 308 306 306 306 304 303 301 302 303 304 303 302 302 299 298 294 293 294 294 288 267 269 269 238 261 274 265 235 234 253 230 180 187 204 212 212 214 217 215 215 225 232 237 241 244 249 239 234 251 258 241 232 240 232 239 233 197 216 173 166 173 161 171 153 164 175 144 136 143 142 148 151 158 165 168 171 172 173
319 318 317 317 316 315 314 312 310 308 307 306 305 304 304 303 301 302 303 303 303 303 304 301 299 292 289 290 283 280 273 263 246 248 259 246 223 244 257 234 214 186 195 208 213 215 216 218 219 218 230 239 241 244 241 243 235 227 234 246 248 236 239 230 231 238 215 210 188 184 186 163 161 143 160 175 147 147 158 145 150 156 161 167 171 174 174 175
320 320 317 316 315 314 313 312 310 309 307 305 304 303 303 302 301 303 303 302 302 302 305 302 297 291 286 283 274 268 263 247 247 252 223 196 216 258 231 203 208 201 206 212 214 217 218 221 223 224 239 247 245 248 244 241 246 249 242 249 258 255 252 243 239 247 233 210 193 189 192 171 164 164 169 168 152 152 160 152 157 163 164 168 172 174 176 177
323 322 318 316 314 313 313 311 310 309 308 307 305 303 301 300 301 303 303 302 301 303 305 302 296 288 279 266 257 257 263 265 258 234 217 209 219 229 214 206 210 210 213 218 218 218 221 225 227 228 235 244 250 254 248 246 259 269 261 259 256 254 255 247 247 250 237 207 186 185 196 181 169 193 183 157 156 161 165 161 163 168 167 169 173 174 177 180
325 324 320 318 317 315 314 312 310 309 308 308 305 304 301 300 302 303 303 301 301 302 303 301 294 282 274 252 248 256 269 267 260 243 233 230 230 226 221 221 219 217 219 222 222 220 223 226 228 232 231 233 242 252 252 240 246 256 255 258 247 241 237 233 241 238 224 188 174 186 199 185 175 204 180 151 159 167 170 168 166 172 171 172 175 174 178 183
327 326 323 321 319 317 316 313 311 309 308 307 305 304 301 301 302 302 301 300 301 301 302 301 289 278 263 251 256 264 266 260 257 247 236 236 241 237 230 227 222 223 224 225 227 222 224 226 227 232 235 236 232 240 276 250 237 239 243 253 250 242 225 214 222 211 204 167 169 194 206 187 182 204 184 152 162 173 172 173 172 175 175 177 179 176 180 185
328 326 325 323 321 320 318 315 312 310 309 307 304 302 301 301 302 301 300 299 299 300 302 298 286 272 240 259 273 267 257 258 251 241 236 237 240 239 229 222 218 221 223 225 231 227 224 224 225 231 234 238 240 240 257 254 236 231 236 241 239 250 216 182 187 189 182 154 174 193 208 202 185 195 187 160 168 177 172 176 178 179 179 180 181 181 182 186
330 328 326 325 324 322 320 318 314 312 311 308 305 303 301 300 300 300 298 297 298 299 300 297 289 262 249 273 281 260 257 258 243 232 230 232 232 230 218 210 211 213 218 220 226 229 224 219 219 227 230 231 243 247 240 234 232 226 234 232 218 241 214 168 177 187 176 162 186 196 211 204 173 180 180 168 176 178 175 180 181 182 181 182 184 185 186 187
332 330 327 326 325 324 323 320 316 314 312 310 307 304 302 301 300 298 295 294 295 294 295 301 301 273 266 281 262 234 247 242 228 214 210 220 223 221 205 201 204 204 210 211 216 222 216 214 216 223 227 223 228 240 240 231 226 216 226 234 215 221 213 171 174 192 185 173 191 203 225 213 150 162 169 172 184 182 180 183 183 185 184 184 187 189 189 188
333 331 329 329 327 325 325 321 318 316 313 312 309 304 303 302 300 297 292 287 287 288 284 271 276 262 258 256 229 231 221 201 193 182 191 208 217 214 192 192 197 194 198 198 204 211 204 207 212 218 225 223 214 220 230 227 219 209 215 230 225 220 218 187 176 201 197 177 191 205 222 234 152 155 168 177 190 189 186 187 185 187 187 187 190 192 192 190
333 331 330 330 328 328 326 322 320 317 315 315 311 308 308 304 302 295 285 280 279 284 278 249 224 249 252 238 238 242 203 182 176 178 194 206 213 209 189 193 192 183 187 189 198 202 198 203 209 213 216 217 213 210 219 224 219 215 211 214 224 226 223 204 178 192 202 185 191 205 217 232 177 156 173 182 191 195 193 192 190 190 191 190 193 197 195 193
333 331 330 330 330 331 328 324 323 320 318 317 314 312 309 302 295 283 269 256 231 234 266 212 191 232 297 243 218 221 173 171 179 191 208 210 212 204 196 198 187 181 186 185 192 196 194 198 208 214 211 210 212 211 217 225 226 227 222 214 220 227 225 220 190 175 196 199 198 206 209 219 194 163 179 188 192 199 199 197 195 193 194 193 196 200 200 198
333 332 330 329 329 331 331 328 325 324 321 320 328 327 317 307 289 273 247 237 232 244 270 248 214 245 281 277 212 201 186 188 203 219 225 216 207 200 199 199 189 188 195 191 185 191 195 203 210 212 213 210 210 215 220 226 233 236 232 222 222 231 222 217 201 169 187 207 208 210 209 215 208 182 185 195 197 200 202 201 198 197 197 198 199 202 202 202
333 332 331 329 328 332 333 329 327 326 322 328 344 345 342 347 324 327 332 279 255 253 261 262 250 251 260 260 246 228 219 221 223 230 231 212 202 200 197 198 196 194 202 201 188 189 200 214 216 213 216 215 210 216 221 225 234 238 238 230 221 234 231 218 202 170 180 205 207 212 216 216 216 204 193 196 202 203 202 201 199 201 201 201 202 204 204 204
333 331 331 329 327 331 334 331 328 321 320 335 341 336 347 0 333 321 323 293 276 269 260 259 256 251 252 252 249 242 239 239 227 222 216 199 199 200 191 195 206 202 198 203 193 189 205 219 218 213 216 221 217 217 221 225 231 235 239 237 224 226 230 229 211 171 171 198 209 214 221 218 213 215 208 197 201 207 207 205 202 203 205 205 204 205 206 204
333 332 331 330 328 331 335 332 328 321 326 336 330 316 309 320 327 326 310 285 282 278 259 248 245 243 244 244 240 232 232 234 227 219 206 194 202 206 197 197 211 210 199 203 202 196 207 215 216 215 212 220 222 217 220 224 228 232 232 233 232 224 222 228 203 164 163 192 221 223 226 226 213 215 219 205 201 205 209 212 211 206 207 209 208 205 206 205
332 331 330 331 329 330 337 334 333 341 334 331 318 284 258 298 332 337 315 278 275 273 253 239 234 236 236 236 228 217 222 229 227 222 205 196 204 209 209 207 211 217 208 204 210 213 215 209 209 216 214 216 222 219 217 220 223 229 230 230 231 226 227 227 179 162 180 199 219 231 231 231 221 216 217 209 208 208 207 211 216 214 210 209 211 209 207 207
332 330 329 332 330 330 341 347 345 344 334 329 319 271 254 308 326 336 324 278 263 260 243 224 220 228 223 212 204 204 218 230 227 224 204 198 204 206 211 214 212 221 214 208 214 220 220 209 203 213 216 214 220 220 216 218 220 225 226 229 236 234 231 232 198 178 202 209 208 222 232 232 225 223 221 213 214 211 205 208 213 216 215 211 210 210 207 207
330 330 328 330 332 331 341 7 319 326 332 323 324 300 292 300 311 331 325 274 265 228 172 181 194 202 197 192 190 198 226 232 221 220 204 197 204 208 210 210 212 224 219 211 217 226 219 214 208 209 213 212 217 222 218 218 224 225 218 218 233 241 237 240 226 202 215 219 205 216 233 241 228 225 222 220 222 213 204 208 212 213 216 215 212 209 206 205
328 330 327 326 334 334 333 327 310 321 340 318 298 302 302 293 309 338 304 265 259 179 139 155 177 181 192 191 180 188 229 200 194 205 201 194 200 210 218 211 207 223 227 216 216 220 212 217 215 206 211 213 213 221 217 216 224 229 219 213 221 234 239 243 240 226 224 219 210 215 226 239 238 230 221 216 221 217 207 207 209 212 215 216 215 212 207 204
325 328 325 321 329 332 323 315 312 316 315 303 292 284 294 301 314 324 271 267 250 141 135 151 163 169 185 181 182 193 159 132 173 190 192 192 196 204 219 223 216 216 221 224 221 210 206 217 215 201 210 217 211 216 215 216 225 229 228 225 218 223 234 242 243 238 227 221 223 218 218 231 237 238 230 215 214 215 212 210 208 212 215 216 218 216 211 205
322 325 325 317 319 325 317 310 309 301 285 287 286 274 296 313 303 276 252 262 255 161 149 147 149 170 181 177 193 209 203 191 201 171 178 191 198 206 220 227 229 223 219 229 233 218 207 216 217 204 210 221 212 213 217 220 226 230 234 239 232 219 223 235 240 240 229 225 232 221 215 225 234 232 228 217 214 213 213 214 211 210 211 214 221 224 222 212
317 322 322 314 316 322 316 312 314 305 284 284 281 269 296 294 263 238 231 235 255 196 139 143 164 178 183 181 197 211 213 215 186 155 178 190 197 212 224 224 232 235 223 227 234 237 221 208 217 217 211 217 217 216 220 223 226 231 232 238 240 228 221 230 234 238 237 230 232 225 215 215 229 231 221 218 219 215 214 215 217 213 202 204 215 221 230 227
314 317 318 313 313 312 306 308 313 292 283 291 283 263 274 258 231 238 227 231 284 194 139 159 185 176 183 194 200 198 206 216 184 168 187 188 191 208 216 216 225 230 225 223 224 235 231 208 209 220 213 212 220 221 219 220 223 227 227 231 237 231 229 235 226 228 238 236 233 231 223 219 226 230 223 223 218 212 212 212 220 216 196 200 210 207 218 230
313 312 312 309 303 297 290 284 267 266 277 294 277 251 247 229 223 233 222 140 274 185 169 190 188 178 190 203 209 192 196 211 194 185 192 188 191 201 205 209 203 207 220 218 209 217 228 223 208 212 214 212 218 221 214 213 217 219 220 226 228 220 219 227 222 221 230 234 234 235 233 228 227 230 232 234 223 208 205 211 222 219 200 202 204 195 203 221
314 313 311 306 298 291 287 281 265 265 276 282 254 241 231 232 228 220 217 221 184 144 185 207 189 189 198 205 214 196 193 204 195 193 197 196 200 199 204 212 207 210 219 213 208 204 217 226 214 210 212 209 214 220 209 203 209 211 212 220 222 216 215 218 219 224 228 229 230 236 243 240 231 232 230 228 226 214 202 205 218 224 219 214 199 185 191 215
317 315 311 306 298 289 287 286 273 266 267 244 234 225 221 234 232 215 219 227 229 204 227 222 195 196 205 212 215 197 198 210 198 196 199 198 207 205 202 211 213 219 226 217 215 208 213 220 208 205 204 200 209 220 217 207 208 210 211 220 221 214 220 222 217 223 231 231 226 228 237 240 236 235 223 217 224 228 214 207 215 223 227 228 202 177 181 203
320 319 316 313 305 289 282 281 272 257 229 214 222 222 221 229 226 224 229 228 236 238 229 229 212 205 211 216 221 212 210 218 202 200 207 205 210 210 202 207 211 215 223 221 214 212 222 226 205 202 202 201 205 215 220 216 212 207 209 222 221 211 223 236 232 228 233 238 231 225 229 230 236 241 224 215 220 223 223 219 223 231 230 224 213 188 184 197
325 325 320 309 291 277 264 267 277 236 215 217 225 225 225 230 226 227 233 229 240 243 230 220 214 219 219 210 223 219 208 216 210 200 210 214 215 216 210 204 204 209 216 220 216 213 223 229 207 198 201 204 205 209 216 221 218 198 205 222 221 214 224 240 242 235 235 239 232 231 236 226 227 233 222 223 224 215 221 223 224 236 234 210 212 213 202 204
331 331 323 302 274 252 231 247 292 226 220 227 233 233 231 236 236 238 248 247 247 247 242 230 210 217 223 212 217 210 197 207 214 204 211 216 215 217 215 208 201 206 213 221 230 224 224 234 210 199 204 205 203 208 216 221 225 213 207 216 217 220 227 234 239 233 233 240 232 231 239 231 224 221 209 221 223 207 220 230 225 235 236 209 203 217 214 209
334 328 317 300 255 211 209 239 282 225 225 232 239 242 244 242 239 241 250 256 259 254 246 241 218 211 224 224 219 208 198 200 208 211 217 218 214 211 213 213 202 202 209 216 228 224 220 238 213 203 209 201 195 206 216 217 223 231 229 213 207 219 222 222 232 230 230 237 232 232 238 236 234 223 203 223 223 204 212 227 226 231 235 214 196 204 215 214
334 319 306 286 165 190 224 261 257 231 232 235 238 241 243 249 250 249 251 252 254 251 245 246 238 224 226 230 230 218 206 204 210 214 215 219 217 205 207 212 204 200 203 209 222 230 217 230 227 204 198 189 187 202 214 210 214 227 238 224 211 219 221 220 226 230 234 237 233 234 237 236 238 225 206 218 224 212 214 223 223 227 236 228 202 191 202 214
325 306 286 183 166 229 265 275 250 235 237 239 244 247 241 245 249 248 251 252 253 248 240 243 243 238 234 232 238 235 220 215 216 215 212 214 215 204 203 209 206 200 199 203 215 229 215 209 230 210 184 185 199 204 211 213 203 211 226 227 218 216 221 223 221 221 229 238 239 235 234 233 237 230 211 205 211 219 222 220 213 215 229 232 208 186 191 205
308 290 266 200 198 251 266 265 247 236 242 242 246 252 251 253 252 246 245 244 247 250 248 249 248 247 245 237 236 238 236 232 222 216 217 214 213 212 205 211 214 203 196 200 209 219 218 205 221 221 191 193 214 212 210 217 217 209 212 222 225 220 217 220 223 222 221 229 239 240 240 232 224 232 224 203 201 220 226 218 207 211 223 232 226 202 187 195
290 271 254 228 258 276 266 261 248 238 244 246 248 251 252 256 258 253 247 241 239 241 243 249 252 250 250 246 242 235 236 244 229 218 226 223 214 208 196 203 215 212 201 203 208 209 218 220 218 227 219 206 214 217 211 216 226 227 216 217 224 225 223 222 224 223 221 226 231 238 246 236 218 231 228 197 201 220 221 209 204 215 220 231 242 222 175 178
282 275 276 276 278 266 251 253 253 243 243 249 253 256 254 253 251 249 249 245 241 236 234 239 242 244 246 247 247 242 236 241 236 224 229 230 216 205 194 200 214 217 206 204 206 200 207 229 221 224 239 226 214 217 215 213 221 231 225 216 217 222 225 228 230 226 226 228 226 231 240 233 229 243 235 197 204 221 223 214 213 222 222 230 244 230 167 177
293 287 281 278 267 242 237 244 248 247 248 246 247 247 248 249 250 248 245 242 241 239 237 237 236 237 240 242 244 245 241 237 233 228 230 232 217 206 201 199 209 220 210 200 202 191 193 219 221 215 228 224 211 211 212 208 209 222 226 219 217 221 222 224 230 232 232 230 228 234 239 227 225 238 238 224 207 211 222 221 223 228 229 238 245 218 200 200
298 286 276 268 236 220 235 247 255 263 262 257 255 251 249 249 244 244 246 246 245 244 243 241 238 235 234 236 237 239 241 241 236 231 233 235 224 211 207 197 196 218 218 223 315 215 200 204 213 217 220 212 209 210 207 204 205 214 225 224 221 221 220 219 226 231 231 228 228 237 243 232 220 221 230 230 205 193 211 220 229 227 219 229 239 205 197 198
294 287 282 272 239 226 233 246 260 271 273 274 271 260 260 263 252 247 247 246 244 246 250 246 241 238 231 230 233 232 233 236 238 236 235 233 226 214 213 209 214 225 229 321 334 242 222 215 211 219 229 225 222 218 208 208 213 210 216 225 226 222 219 218 224 230 230 228 232 239 244 244 237 227 227 224 207 201 213 226 242 238 216 213 212 170 176 189
278 272 274 287 275 251 241 241 255 283 302 300 296 270 260 258 264 263 253 245 240 239 247 250 243 240 231 225 228 231 229 229 232 234 236 237 235 223 215 215 222 226 229 299 267 230 241 238 217 215 226 236 244 238 218 217 225 218 211 219 227 225 222 221 224 229 230 231 233 231 232 239 245 245 239 228 214 210 221 233 240 239 227 213 193 170 176 186
266 268 274 288 297 274 258 262 283 318 313 304 309 296 273 255 258 268 264 261 247 231 233 245 242 242 241 233 227 227 226 226 227 229 231 234 237 234 221 213 217 217 210 224 232 222 239 242 224 218 221 228 243 249 239 232 235 231 222 222 225 226 228 229 229 229 228 234 239 231 227 230 237 243 245 242 229 211 215 230 229 224 227 228 215 197 186 184
272 275 281 288 287 279 280 284 294 305 299 295 293 281 274 266 265 267 270 279 271 247 235 233 233 237 240 239 236 230 224 223 225 224 225 229 229 230 228 215 210 209 206 213 220 216 228 235 228 232 231 226 232 241 245 244 240 234 230 230 227 225 228 233 235 235 233 238 242 239 237 234 231 234 238 244 248 235 217 218 224 226 229 233 229 213 199 201
268 277 290 293 285 282 284 281 281 284 277 277 274 263 264 268 269 276 285 293 302 288 263 253 258 267 263 252 242 235 230 229 232 228 223 226 224 221 230 230 212 203 202 209 213 209 216 226 225 235 248 241 232 234 238 241 243 239 234 233 232 229 228 229 232 234 235 238 241 241 242 240 234 231 230 236 247 250 237 218 217 223 228 233 236 229 222 228
263 271 285 290 285 280 280 278 274 270 260 253 254 256 257 259 266 293 309 297 289 289 303 326 327 322 312 283 247 234 242 247 252 251 238 229 223 215 219 229 228 214 202 205 211 207 208 219 222 227 242 244 238 239 239 238 241 244 242 238 235 233 231 230 229 231 232 234 237 240 242 239 234 235 231 229 239 248 251 241 227 219 219 227 238 241 239 239
273 275 270 269 274 275 274 273 268 265 261 255 253 253 254 258 265 288 310 295 279 286 331 354 338 323 312 294 272 288 309 308 301 296 284 259 241 232 227 225 227 230 216 205 207 210 210 212 216 222 233 237 236 240 244 241 239 240 240 239 239 238 237 234 230 228 229 231 233 236 241 241 236 235 234 231 232 235 242 245 243 239 236 236 241 244 244 244